ANA2177 RJAA-RJOO

Flight info

Callsign ANA2177
Flight time 0h 54m
Altitude 34000
Route PIGOK Y50 ELNIS Y564 IBENO Y56 TOHME Y54 KOHWA Y546 AGPUK
Aircraft B772/H-SDE2E3FGHIJ5LORVWXY/LB1D1

Departure

Time 2026-05-08 15:09
Airport Narita International Airport (RJAA)

Arrival

Time 2026-05-08 16:04
Airport Osaka Itami International Airport (RJOO)
Time Latitude Longitude Altitude Speed Heading
2026-05-08 14:32 35.76445 140.39047 148 ft 0 kts 294°
2026-05-08 14:44 35.76445 140.39049 149 ft 2 kts 294°
2026-05-08 14:45 35.76438 140.39068 148 ft 2 kts 291°
2026-05-08 14:45 35.76433 140.39087 148 ft 2 kts 287°
2026-05-08 14:45 35.76428 140.39106 148 ft 2 kts 281°
2026-05-08 14:45 35.76426 140.39127 148 ft 2 kts 269°
2026-05-08 14:46 35.76428 140.39147 148 ft 2 kts 241°
2026-05-08 14:46 35.76439 140.39162 148 ft 2 kts 210°
2026-05-08 14:46 35.76446 140.39166 148 ft 0 kts 205°
2026-05-08 14:46 35.76446 140.39167 148 ft 0 kts 205°
2026-05-08 14:50 35.76421 140.39152 148 ft 6 kts 205°
2026-05-08 14:50 35.76382 140.39130 148 ft 6 kts 205°
2026-05-08 14:50 35.76341 140.39107 148 ft 7 kts 204°
2026-05-08 14:51 35.76296 140.39083 148 ft 8 kts 204°
2026-05-08 14:51 35.76244 140.39055 148 ft 8 kts 203°
2026-05-08 14:51 35.76190 140.39026 148 ft 8 kts 203°
2026-05-08 14:51 35.76133 140.39017 148 ft 8 kts 163°
2026-05-08 14:52 35.76095 140.39071 148 ft 9 kts 120°
2026-05-08 14:52 35.75993 140.39176 148 ft 12 kts 149°
2026-05-08 14:52 35.75920 140.39230 148 ft 12 kts 149°
2026-05-08 14:53 35.75845 140.39279 148 ft 12 kts 159°
2026-05-08 14:53 35.75766 140.39255 148 ft 12 kts 228°
2026-05-08 14:53 35.75721 140.39167 148 ft 12 kts 237°
2026-05-08 14:53 35.75658 140.39098 148 ft 10 kts 209°
2026-05-08 14:54 35.75624 140.39077 148 ft 0 kts 205°
2026-05-08 14:58 35.75615 140.39072 148 ft 4 kts 205°
2026-05-08 14:59 35.75575 140.39048 149 ft 9 kts 206°
2026-05-08 14:59 35.75414 140.38959 149 ft 14 kts 204°
2026-05-08 14:59 35.75326 140.38912 149 ft 14 kts 204°
2026-05-08 15:00 35.75238 140.38864 149 ft 14 kts 204°
2026-05-08 15:00 35.75167 140.38804 149 ft 12 kts 239°
2026-05-08 15:00 35.75189 140.38713 149 ft 12 kts 322°
2026-05-08 15:00 35.75262 140.38660 149 ft 12 kts 329°
2026-05-08 15:01 35.75335 140.38607 149 ft 12 kts 328°
2026-05-08 15:01 35.75408 140.38552 149 ft 12 kts 328°
2026-05-08 15:01 35.75481 140.38500 149 ft 12 kts 330°
2026-05-08 15:01 35.75555 140.38448 149 ft 12 kts 330°
2026-05-08 15:02 35.75629 140.38396 149 ft 12 kts 329°
2026-05-08 15:02 35.75701 140.38343 149 ft 12 kts 329°
2026-05-08 15:02 35.75777 140.38286 149 ft 14 kts 329°
2026-05-08 15:02 35.75872 140.38216 149 ft 17 kts 329°
2026-05-08 15:03 35.75972 140.38144 149 ft 17 kts 329°
2026-05-08 15:03 35.76073 140.38073 148 ft 17 kts 332°
2026-05-08 15:03 35.76173 140.38002 148 ft 17 kts 328°
2026-05-08 15:03 35.76272 140.37929 148 ft 17 kts 330°
2026-05-08 15:04 35.76372 140.37858 148 ft 17 kts 330°
2026-05-08 15:04 35.76470 140.37786 148 ft 17 kts 330°
2026-05-08 15:04 35.76571 140.37714 148 ft 17 kts 329°
2026-05-08 15:04 35.76671 140.37642 148 ft 17 kts 329°
2026-05-08 15:05 35.76770 140.37570 148 ft 17 kts 329°
2026-05-08 15:05 35.76871 140.37497 148 ft 17 kts 329°
2026-05-08 15:05 35.76970 140.37425 148 ft 17 kts 329°
2026-05-08 15:05 35.77070 140.37353 148 ft 17 kts 329°
2026-05-08 15:06 35.77168 140.37282 147 ft 17 kts 329°
2026-05-08 15:06 35.77269 140.37209 147 ft 17 kts 329°
2026-05-08 15:06 35.77368 140.37138 147 ft 17 kts 329°
2026-05-08 15:06 35.77431 140.37092 147 ft 9 kts 329°
2026-05-08 15:07 35.77483 140.37042 148 ft 10 kts 305°
2026-05-08 15:07 35.77489 140.36990 148 ft 0 kts 259°
2026-05-08 15:08 35.77487 140.36979 148 ft 6 kts 257°
2026-05-08 15:08 35.77471 140.36934 148 ft 11 kts 242°
2026-05-08 15:08 35.77388 140.36872 148 ft 12 kts 163°
2026-05-08 15:08 35.77286 140.36945 146 ft 35 kts 149°
2026-05-08 15:09 35.76851 140.37254 148 ft 112 kts 150°
2026-05-08 15:09 35.75980 140.37895 281 ft 170 kts 151°
2026-05-08 15:09 35.75033 140.38636 1297 ft 158 kts 155°
2026-05-08 15:09 35.74041 140.39344 2045 ft 170 kts 159°
2026-05-08 15:10 35.72919 140.40112 2277 ft 198 kts 158°
2026-05-08 15:10 35.71637 140.41002 2454 ft 225 kts 157°
2026-05-08 15:10 35.70194 140.42015 2692 ft 252 kts 156°
2026-05-08 15:10 35.68621 140.43139 3171 ft 267 kts 155°
2026-05-08 15:11 35.67004 140.44311 3913 ft 271 kts 155°
2026-05-08 15:11 35.65368 140.45500 4681 ft 276 kts 155°
2026-05-08 15:11 35.63725 140.46692 5423 ft 278 kts 156°
2026-05-08 15:11 35.62055 140.47903 6247 ft 279 kts 156°
2026-05-08 15:12 35.60384 140.49113 7013 ft 280 kts 157°
2026-05-08 15:12 35.58691 140.50336 7724 ft 285 kts 157°
2026-05-08 15:12 35.56946 140.51593 8433 ft 289 kts 158°
2026-05-08 15:12 35.55223 140.52830 9205 ft 292 kts 158°
2026-05-08 15:13 35.53460 140.54095 9956 ft 294 kts 159°
2026-05-08 15:13 35.51663 140.55381 10517 ft 307 kts 159°
2026-05-08 15:13 35.49732 140.56752 10724 ft 335 kts 158°
2026-05-08 15:13 35.47629 140.58203 10894 ft 352 kts 163°
2026-05-08 15:14 35.45255 140.58896 11245 ft 352 kts 187°
2026-05-08 15:14 35.42897 140.58338 12168 ft 342 kts 208°
2026-05-08 15:14 35.40900 140.56835 13395 ft 334 kts 224°
2026-05-08 15:14 35.39393 140.54696 14391 ft 333 kts 239°
2026-05-08 15:15 35.38233 140.52222 15230 ft 338 kts 241°
2026-05-08 15:15 35.37462 140.50551 15774 ft 342 kts 240°
2026-05-08 15:15 35.36268 140.48007 16637 ft 346 kts 240°
2026-05-08 15:15 35.35045 140.44349 17576 ft 356 kts 255°
2026-05-08 15:16 35.34806 140.42350 18097 ft 360 kts 261°
2026-05-08 15:16 35.34600 140.39288 18898 ft 361 kts 262°
2026-05-08 15:16 35.34417 140.36221 19790 ft 360 kts 262°
2026-05-08 15:16 35.34234 140.33155 20584 ft 362 kts 262°
2026-05-08 15:17 35.34042 140.30071 21325 ft 365 kts 262°
2026-05-08 15:17 35.33841 140.26965 22085 ft 367 kts 262°
2026-05-08 15:17 35.33634 140.23847 22847 ft 369 kts 262°
2026-05-08 15:17 35.33421 140.20706 23574 ft 370 kts 262°
2026-05-08 15:18 35.33204 140.17551 24153 ft 373 kts 262°
2026-05-08 15:18 35.32983 140.14366 24641 ft 378 kts 261°
2026-05-08 15:18 35.32759 140.11142 25208 ft 380 kts 261°
2026-05-08 15:18 35.32534 140.07912 25806 ft 382 kts 261°
2026-05-08 15:19 35.32308 140.04664 26299 ft 385 kts 261°
2026-05-08 15:19 35.32078 140.01389 26765 ft 388 kts 261°
2026-05-08 15:19 35.31845 139.98083 27198 ft 391 kts 261°
2026-05-08 15:19 35.31603 139.94750 27638 ft 394 kts 259°
2026-05-08 15:20 35.31066 139.91480 28057 ft 390 kts 249°
2026-05-08 15:20 35.30069 139.88385 28314 ft 393 kts 247°
2026-05-08 15:20 35.29042 139.85266 28648 ft 397 kts 247°
2026-05-08 15:20 35.28025 139.82118 29006 ft 398 kts 247°
2026-05-08 15:21 35.27015 139.78953 29375 ft 400 kts 247°
2026-05-08 15:21 35.26008 139.75774 29717 ft 402 kts 248°
2026-05-08 15:21 35.25002 139.72589 30073 ft 401 kts 247°
2026-05-08 15:21 35.24002 139.69422 30548 ft 398 kts 247°
2026-05-08 15:22 35.23021 139.66319 30991 ft 394 kts 247°
2026-05-08 15:22 35.22035 139.63204 31431 ft 392 kts 246°
2026-05-08 15:22 35.21051 139.60098 31830 ft 391 kts 246°
2026-05-08 15:22 35.20069 139.57009 32221 ft 389 kts 246°
2026-05-08 15:23 35.19213 139.53872 32613 ft 390 kts 251°
2026-05-08 15:23 35.18584 139.50652 32995 ft 390 kts 253°
2026-05-08 15:23 35.18058 139.47398 33380 ft 390 kts 255°
2026-05-08 15:23 35.17677 139.44115 33724 ft 392 kts 258°
2026-05-08 15:24 35.17336 139.37410 33713 ft 396 kts 261°
2026-05-08 15:24 35.17063 139.30706 33723 ft 394 kts 261°
2026-05-08 15:25 35.16764 139.24006 33728 ft 395 kts 260°
2026-05-08 15:25 35.16447 139.17290 33732 ft 396 kts 260°
2026-05-08 15:26 35.16122 139.10560 33738 ft 397 kts 261°
2026-05-08 15:26 35.15796 139.03817 33736 ft 398 kts 261°
2026-05-08 15:27 35.15464 138.97105 33753 ft 399 kts 260°
2026-05-08 15:27 35.15125 138.90327 33761 ft 399 kts 261°
2026-05-08 15:28 35.14785 138.83564 33748 ft 398 kts 261°
2026-05-08 15:28 35.14442 138.76810 33754 ft 397 kts 261°
2026-05-08 15:29 35.14096 138.70076 33759 ft 396 kts 261°
2026-05-08 15:29 35.13747 138.63369 33764 ft 395 kts 261°
2026-05-08 15:30 35.13395 138.56675 33763 ft 395 kts 261°
2026-05-08 15:30 35.13039 138.49973 33769 ft 396 kts 261°
2026-05-08 15:31 35.12673 138.43254 33774 ft 396 kts 260°
2026-05-08 15:31 35.11746 138.36695 33769 ft 391 kts 253°
2026-05-08 15:32 35.10147 138.30347 33775 ft 392 kts 248°
2026-05-08 15:32 35.08268 138.24044 33804 ft 398 kts 248°
2026-05-08 15:33 35.06370 138.17691 33815 ft 400 kts 248°
2026-05-08 15:33 35.04488 138.11355 33818 ft 396 kts 248°
2026-05-08 15:34 35.02624 138.05088 33839 ft 392 kts 248°
2026-05-08 15:34 35.00757 137.98825 33841 ft 394 kts 248°
2026-05-08 15:35 34.98879 137.92529 33849 ft 394 kts 248°
2026-05-08 15:35 34.97002 137.86255 33865 ft 393 kts 248°
2026-05-08 15:36 34.95124 137.79988 33865 ft 394 kts 248°
2026-05-08 15:36 34.93246 137.73732 33894 ft 393 kts 248°
2026-05-08 15:37 34.91355 137.67457 33893 ft 395 kts 248°
2026-05-08 15:37 34.89458 137.61165 33902 ft 396 kts 248°
2026-05-08 15:38 34.87569 137.54903 33913 ft 395 kts 248°
2026-05-08 15:38 34.85671 137.48630 33911 ft 394 kts 248°
2026-05-08 15:39 34.83832 137.42353 33926 ft 393 kts 249°
2026-05-08 15:39 34.82056 137.36072 33921 ft 392 kts 249°
2026-05-08 15:40 34.80276 137.29801 33930 ft 391 kts 249°
2026-05-08 15:40 34.78490 137.23552 33935 ft 391 kts 249°
2026-05-08 15:41 34.76701 137.17315 33944 ft 390 kts 249°
2026-05-08 15:41 34.74919 137.11118 33560 ft 394 kts 250°
2026-05-08 15:42 34.74001 137.07934 32684 ft 399 kts 250°
2026-05-08 15:42 34.73092 137.04779 31934 ft 393 kts 250°
2026-05-08 15:42 34.72192 137.01656 31196 ft 389 kts 250°
2026-05-08 15:42 34.71318 136.98628 30480 ft 370 kts 250°
2026-05-08 15:43 34.70476 136.95717 29773 ft 362 kts 250°
2026-05-08 15:43 34.69639 136.92835 28955 ft 361 kts 250°
2026-05-08 15:43 34.68801 136.89962 28187 ft 361 kts 250°
2026-05-08 15:43 34.67963 136.87090 27433 ft 360 kts 250°
2026-05-08 15:44 34.67129 136.84232 26698 ft 359 kts 250°
2026-05-08 15:44 34.66294 136.81373 25979 ft 358 kts 251°
2026-05-08 15:44 34.65463 136.78528 25270 ft 357 kts 251°
2026-05-08 15:44 34.64631 136.75684 24545 ft 357 kts 251°
2026-05-08 15:45 34.63800 136.72845 23832 ft 358 kts 251°
2026-05-08 15:45 34.62973 136.70024 23024 ft 344 kts 251°
2026-05-08 15:45 34.62193 136.67364 22348 ft 338 kts 251°
2026-05-08 15:45 34.61404 136.64675 21656 ft 338 kts 251°
2026-05-08 15:46 34.60615 136.61988 21006 ft 338 kts 251°
2026-05-08 15:46 34.59838 136.59345 20344 ft 320 kts 251°
2026-05-08 15:46 34.59100 136.56838 19785 ft 316 kts 251°
2026-05-08 15:46 34.58359 136.54320 19195 ft 318 kts 251°
2026-05-08 15:47 34.57613 136.51788 18612 ft 320 kts 251°
2026-05-08 15:47 34.56861 136.49238 17969 ft 322 kts 251°
2026-05-08 15:47 34.56104 136.46673 17341 ft 323 kts 251°
2026-05-08 15:47 34.55344 136.44104 16732 ft 323 kts 251°
2026-05-08 15:48 34.53831 136.38986 15617 ft 322 kts 251°
2026-05-08 15:48 34.53073 136.36429 15070 ft 320 kts 251°
2026-05-08 15:48 34.52347 136.33993 14538 ft 303 kts 251°
2026-05-08 15:49 34.51734 136.31553 14050 ft 303 kts 256°
2026-05-08 15:49 34.51317 136.29040 13476 ft 305 kts 261°
2026-05-08 15:49 34.50983 136.26492 12924 ft 306 kts 261°
2026-05-08 15:49 34.50658 136.23939 12378 ft 307 kts 262°
2026-05-08 15:50 34.50332 136.21380 11817 ft 307 kts 261°
2026-05-08 15:50 34.50004 136.18818 11307 ft 307 kts 262°
2026-05-08 15:50 34.49672 136.16262 10786 ft 307 kts 262°
2026-05-08 15:50 34.49347 136.13789 10574 ft 285 kts 262°
2026-05-08 15:51 34.49055 136.11573 10433 ft 249 kts 263°
2026-05-08 15:51 34.48794 136.09582 10350 ft 233 kts 262°
2026-05-08 15:51 34.48785 136.07684 10229 ft 222 kts 278°
2026-05-08 15:51 34.49178 136.05906 10165 ft 217 kts 284°
2026-05-08 15:52 34.49664 136.04175 10067 ft 217 kts 285°
2026-05-08 15:52 34.50170 136.02408 9943 ft 229 kts 286°
2026-05-08 15:52 34.50708 136.00522 9604 ft 241 kts 287°
2026-05-08 15:52 34.51253 135.98605 9017 ft 234 kts 287°
2026-05-08 15:53 34.51759 135.96819 8651 ft 214 kts 288°
2026-05-08 15:53 34.52223 135.95172 8366 ft 201 kts 289°
2026-05-08 15:53 34.52687 135.93508 8118 ft 227 kts 289°
2026-05-08 15:53 34.53225 135.91591 7776 ft 246 kts 290°
2026-05-08 15:54 34.53756 135.89690 7413 ft 228 kts 290°
2026-05-08 15:54 34.54247 135.87915 7151 ft 218 kts 291°
2026-05-08 15:54 34.54734 135.86163 6828 ft 221 kts 291°
2026-05-08 15:54 34.55230 135.84374 6540 ft 226 kts 292°
2026-05-08 15:55 34.55729 135.82571 6215 ft 225 kts 292°
2026-05-08 15:55 34.56726 135.78971 5592 ft 225 kts 292°
2026-05-08 15:55 34.57077 135.77704 5379 ft 226 kts 291°
2026-05-08 15:56 34.57578 135.75890 5073 ft 227 kts 291°
2026-05-08 15:56 34.58079 135.74075 4766 ft 227 kts 291°
2026-05-08 15:56 34.58580 135.72257 4438 ft 227 kts 291°
2026-05-08 15:56 34.59082 135.70439 4143 ft 227 kts 290°
2026-05-08 15:57 34.59583 135.68614 3847 ft 228 kts 290°
2026-05-08 15:57 34.60092 135.66781 3596 ft 227 kts 292°
2026-05-08 15:57 34.60873 135.65193 3520 ft 214 kts 309°
2026-05-08 15:57 34.61842 135.63878 3492 ft 204 kts 313°
2026-05-08 15:58 34.62795 135.62678 3472 ft 190 kts 313°
2026-05-08 15:58 34.63686 135.61590 3501 ft 173 kts 314°
2026-05-08 15:58 34.64508 135.60595 3485 ft 163 kts 314°
2026-05-08 15:58 34.65315 135.59616 3343 ft 166 kts 314°
2026-05-08 15:59 34.66099 135.58669 3167 ft 152 kts 313°
2026-05-08 15:59 34.66821 135.57795 2937 ft 142 kts 313°
2026-05-08 15:59 34.67521 135.56946 2773 ft 142 kts 313°
2026-05-08 15:59 34.68203 135.56121 2576 ft 132 kts 312°
2026-05-08 16:00 34.68821 135.55372 2421 ft 123 kts 312°
2026-05-08 16:00 34.69434 135.54628 2251 ft 127 kts 312°
2026-05-08 16:00 34.70065 135.53863 2077 ft 128 kts 312°
2026-05-08 16:00 34.70693 135.53102 1890 ft 128 kts 311°
2026-05-08 16:01 34.71325 135.52335 1737 ft 129 kts 312°
2026-05-08 16:01 34.71963 135.51564 1550 ft 130 kts 313°
2026-05-08 16:01 34.72393 135.51047 1457 ft 133 kts 313°
2026-05-08 16:01 34.73052 135.50233 1240 ft 131 kts 312°
2026-05-08 16:02 34.73691 135.49454 1037 ft 131 kts 312°
2026-05-08 16:02 34.74346 135.48665 889 ft 135 kts 314°
2026-05-08 16:02 34.75011 135.47868 700 ft 137 kts 315°
2026-05-08 16:02 34.75690 135.47037 510 ft 137 kts 315°
2026-05-08 16:03 34.76363 135.46226 318 ft 135 kts 315°
2026-05-08 16:03 34.77015 135.45445 129 ft 133 kts 314°
2026-05-08 16:03 34.77640 135.44676 47 ft 117 kts 313°
2026-05-08 16:03 34.78127 135.44086 46 ft 77 kts 315°
2026-05-08 16:04 34.78401 135.43779 46 ft 37 kts 330°
2026-05-08 16:04 34.78607 135.43695 46 ft 23 kts 350°
2026-05-08 16:04 34.78687 135.43702 46 ft 0 kts 15°
2026-05-08 16:05 34.78698 135.43707 46 ft 5 kts 18°
2026-05-08 16:05 34.78752 135.43747 45 ft 12 kts 42°
2026-05-08 16:05 34.78817 135.43822 46 ft 15 kts 43°
2026-05-08 16:05 34.78875 135.43928 46 ft 15 kts 87°
2026-05-08 16:06 34.78817 135.44035 46 ft 16 kts 135°
2026-05-08 16:06 34.78766 135.44126 46 ft 12 kts 83°
2026-05-08 16:06 34.78826 135.44196 46 ft 12 kts 32°
2026-05-08 16:06 34.78866 135.44226 45 ft 0 kts 31°